This demonstration page uses our WeatherBlox Daily Observations layout. Learn more.

Left ArrowRight Arrow

36.17497, -115.13722

Hourly Observations for March 6, 2019

Temp ( °F °C ) Dew Point ( °F °C ) Humidity (%) Winds ( mph kmh ) Pressure ( in mb ) Visibility ( mi km ) Precip ( " mm )
1:53 am 01:53 Cloudy with Light Rain 56 13.3 49 9.4 77 77 E 5 7 29.91 1013 10 16 0.04 1.02
2:53 am 02:53 Mostly Cloudy with Light Rain 54 12.2 50 10 87 87 NNE 5 7 29.88 1012 10 16 0.07 1.78
3:53 am 03:53 Cloudy with Light Rain 54 12.2 49 9.4 83 83 N 3 6 29.86 1011 10 16 0.01 0.25
4:53 am 04:53 Cloudy 54 12.2 48 8.9 80 80 Calm 29.83 1010 10 16 0.00 0.03
5:53 am 05:53 Cloudy 54 12.2 49 9.4 83 83 ESE 3 6 29.83 1010 10 16 0.00 0.03
6:53 am 06:53 Cloudy with Light Rain 54 12.2 50 10 87 87 NNE 5 7 29.84 1011 10 16 0.01 0.25
7:53 am 07:53 Cloudy with Light Rain 54 12.2 50 10 87 87 Calm 29.86 1011 10 16 0.06 1.52
8:53 am 08:53 Cloudy with Light Rain 54 12.2 51 10.6 90 90 S 5 7 29.91 1013 10 16 0.03 0.76
9:53 am 09:53 Cloudy with Light Rain 56 13.3 47 8.3 72 72 W 9 15 29.94 1014 10 16 0.02 0.51
10:53 am 10:53 Cloudy with Light Rain 57 13.9 43 6.1 60 60 W 20 31 29.95 1014 10 16 0.00 0.03
11:53 am 11:53 Cloudy with Light Rain 55 12.8 44 6.7 67 67 WSW 10 17 29.96 1015 10 16 0.01 0.25
12:53 pm 12:53 Mostly Cloudy 55 12.8 46 7.8 72 72 SSW 10 17 29.92 1013 10 16 0.01 0.25
1:53 pm 13:53 Mostly Sunny 59 15 45 7.2 60 60 SSW 13 20 29.90 1013 10 16 0.00 0.00
2:53 pm 14:53 Mostly Sunny 60 15.6 44 6.7 56 56 SSW 10 17 29.90 1013 10 16 0.00 0.00
3:53 pm 15:53 Mostly Sunny 60 15.6 44 6.7 56 56 S 8 13 29.90 1012 10 16 0.00 0.00
4:53 pm 16:53 Sunny 60 15.6 43 6.1 53 53 SSW 12 19 29.89 1012 10 16 0.00 0.00
5:53 pm 17:53 Clear 59 15 42 5.6 54 54 S 13 20 29.89 1012 10 16 0.00 0.00
6:53 pm 18:53 Mostly Cloudy 58 14.4 43 6.1 58 58 S 17 28 29.90 1013 10 16 0.00 0.00
7:53 pm 19:53 Mostly Cloudy 58 14.4 43 6.1 58 58 S 16 26 29.91 1013 10 16 0.00 0.00
8:53 pm 20:53 Partly Cloudy 58 14.4 43 6.1 58 58 S 20 31 29.91 1013 10 16 0.00 0.00
9:53 pm 21:53 Cloudy 58 14.4 44 6.7 60 60 S 10 17 29.93 1013 10 16 0.00 0.00
10:53 pm 22:53 Mostly Clear 57 13.9 43 6.1 60 60 S 16 26 29.93 1014 10 16 0.00 0.00
11:53 pm 23:53 Clear 57 13.9 42 5.6 58 58 S 15 24 29.91 1013 10 16 0.00 0.00

Powered by AerisWeather